Previsão horária em Sengés

Hoje, 6 Dezembro, Domingo

Tempo Temperatura Precipitação Vento Pressão Humidade
00:00 +19°C° 3.1 mm 4 m/s 709 mmHg 96%
01:00 +19°C° 0.7 mm 3 m/s 708 mmHg 96%
02:00 +19°C° 0.7 mm 3 m/s 708 mmHg 95%
03:00 +19°C° 0.7 mm 3 m/s 708 mmHg 95%
04:00 +19°C° 0.1 mm 3 m/s 708 mmHg 95%
05:00 +19°C° 0.1 mm 3 m/s 708 mmHg 95%
06:00 +19°C° 0.1 mm 3 m/s 707 mmHg 95%
07:00 +19°C° 0.1 mm 3 m/s 708 mmHg 94%
08:00 +20°C° 0.1 mm 3 m/s 708 mmHg 92%
09:00 +21°C° 0.1 mm 3 m/s 708 mmHg 90%
10:00 +21°C° 0.1 mm 3 m/s 708 mmHg 90%
11:00 +21°C° 0.1 mm 2 m/s 708 mmHg 91%
12:00 +21°C° 0.1 mm 2 m/s 708 mmHg 91%
13:00 +21°C° 0.1 mm 2 m/s 708 mmHg 91%
14:00 +21°C° 0.1 mm 2 m/s 707 mmHg 91%
15:00 +21°C° 0.1 mm 2 m/s 707 mmHg 92%
16:00 +21°C° 0 mm 3 m/s 707 mmHg 91%
17:00 +21°C° 0 mm 3 m/s 707 mmHg 90%
18:00 +21°C° 0 mm 4 m/s 706 mmHg 90%
19:00 +20°C° 0 mm 4 m/s 707 mmHg 89%
20:00 +20°C° 0 mm 4 m/s 707 mmHg 89%
21:00 +20°C° 0 mm 4 m/s 707 mmHg 89%
22:00 +20°C° 0 mm 4 m/s 707 mmHg 88%
23:00 +20°C° 0 mm 4 m/s 707 mmHg 88%

Amanhã, 7 Dezembro, Segunda-feira

Tempo Temperatura Precipitação Vento Pressão Humidade
00:00 +20°C° 0 mm 4 m/s 707 mmHg 87%
01:00 +20°C° 0 mm 3 m/s 707 mmHg 87%
02:00 +20°C° 0 mm 3 m/s 707 mmHg 87%
03:00 +20°C° 0 mm 3 m/s 706 mmHg 88%
04:00 +20°C° 0 mm 3 m/s 707 mmHg 88%
05:00 +20°C° 0 mm 3 m/s 707 mmHg 88%
06:00 +20°C° 0 mm 3 m/s 707 mmHg 89%
07:00 +21°C° 0 mm 3 m/s 707 mmHg 86%
08:00 +22°C° 0 mm 3 m/s 708 mmHg 84%
09:00 +23°C° 0 mm 4 m/s 708 mmHg 81%
10:00 +23°C° 0 mm 4 m/s 708 mmHg 81%
11:00 +24°C° 0 mm 3 m/s 708 mmHg 80%
12:00 +24°C° 0 mm 3 m/s 708 mmHg 80%
13:00 +25°C° 0 mm 3 m/s 707 mmHg 78%
14:00 +25°C° 0 mm 3 m/s 707 mmHg 76%
15:00 +26°C° 0 mm 3 m/s 706 mmHg 74%
16:00 +25°C° 0 mm 3 m/s 706 mmHg 76%
17:00 +23°C° 0 mm 4 m/s 706 mmHg 78%
18:00 +23°C° 0 mm 4 m/s 706 mmHg 80%
19:00 +22°C° 0 mm 3 m/s 706 mmHg 83%
20:00 +21°C° 0 mm 3 m/s 707 mmHg 87%
21:00 +19°C° 0 mm 3 m/s 707 mmHg 90%
22:00 +19°C° 0 mm 3 m/s 707 mmHg 90%
23:00 +19°C° 0 mm 3 m/s 707 mmHg 89%

Depois de amanhã, 8 Dezembro, Terça-feira

Tempo Temperatura Precipitação Vento Pressão Humidade
00:00 +19°C° 0 mm 3 m/s 707 mmHg 89%
01:00 +19°C° 0 mm 2 m/s 706 mmHg 90%
02:00 +18°C° 0 mm 2 m/s 706 mmHg 92%
03:00 +19°C° 0 mm 1 m/s 706 mmHg 93%
04:00 +19°C° 0 mm 1 m/s 706 mmHg 93%
05:00 +19°C° 0 mm 1 m/s 706 mmHg 94%
06:00 +19°C° 0 mm 1 m/s 706 mmHg 94%
07:00 +21°C° 0 mm 1 m/s 707 mmHg 87%
08:00 +23°C° 0 mm 2 m/s 707 mmHg 80%
09:00 +25°C° 0 mm 2 m/s 708 mmHg 73%
10:00 +27°C° 0 mm 1 m/s 707 mmHg 67%
11:00 +29°C° 0 mm 1 m/s 707 mmHg 61%
12:00 +29°C° 0 mm 0 m/s 707 mmHg 55%
13:00 +30°C° 0.3 mm 1 m/s 707 mmHg 57%
14:00 +30°C° 0.3 mm 1 m/s 706 mmHg 58%
15:00 +30°C° 0.3 mm 1 m/s 705 mmHg 60%
16:00 +28°C° 0.3 mm 1 m/s 705 mmHg 66%
17:00 +27°C° 0.3 mm 2 m/s 705 mmHg 73%
18:00 +25°C° 0.3 mm 2 m/s 705 mmHg 79%
19:00 +24°C° 0.1 mm 2 m/s 706 mmHg 84%
20:00 +22°C° 0.1 mm 3 m/s 706 mmHg 88%
21:00 +21°C° 0.1 mm 3 m/s 707 mmHg 92%
22:00 +20°C° 0 mm 2 m/s 707 mmHg 93%
23:00 +20°C° 0 mm 2 m/s 707 mmHg 95%

9 Dezembro, Quarta-feira

Tempo Temperatura Precipitação Vento Pressão Humidade
00:00 +19°C° 0 mm 2 m/s 707 mmHg 96%
01:00 +20°C° 0 mm 1 m/s 706 mmHg 96%
02:00 +20°C° 0 mm 1 m/s 706 mmHg 96%
03:00 +19°C° 0 mm 1 m/s 706 mmHg 97%
04:00 +19°C° 0 mm 1 m/s 706 mmHg 96%
05:00 +20°C° 0 mm 1 m/s 706 mmHg 94%
06:00 +20°C° 0 mm 1 m/s 707 mmHg 93%
07:00 +21°C° 0 mm 2 m/s 707 mmHg 85%
08:00 +23°C° 0 mm 2 m/s 708 mmHg 76%
09:00 +25°C° 0 mm 2 m/s 708 mmHg 68%
10:00 +27°C° 0 mm 1 m/s 708 mmHg 60%
11:00 +29°C° 0 mm 1 m/s 708 mmHg 52%
12:00 +31°C° 0 mm 1 m/s 708 mmHg 44%
13:00 +31°C° 0 mm 1 m/s 708 mmHg 44%
14:00 +31°C° 0 mm 1 m/s 707 mmHg 45%
15:00 +30°C° 0 mm 1 m/s 706 mmHg 45%
16:00 +30°C° 0 mm 1 m/s 706 mmHg 50%
17:00 +29°C° 0 mm 1 m/s 706 mmHg 55%
18:00 +28°C° 0 mm 1 m/s 706 mmHg 60%
19:00 +25°C° 0.5 mm 1 m/s 706 mmHg 70%
20:00 +23°C° 0.5 mm 2 m/s 706 mmHg 81%
21:00 +20°C° 0.5 mm 2 m/s 707 mmHg 91%
22:00 +20°C° 0.5 mm 2 m/s 707 mmHg 93%
23:00 +19°C° 0.5 mm 2 m/s 707 mmHg 94%

10 Dezembro, Quinta-feira

Tempo Temperatura Precipitação Vento Pressão Humidade
00:00 +19°C° 0.5 mm 2 m/s 707 mmHg 96%
01:00 +19°C° 0 mm 1 m/s 707 mmHg 96%
02:00 +19°C° 0 mm 1 m/s 706 mmHg 96%
03:00 +18°C° 0 mm 1 m/s 706 mmHg 96%
04:00 +19°C° 0 mm 1 m/s 706 mmHg 96%
05:00 +19°C° 0 mm 1 m/s 706 mmHg 96%
06:00 +18°C° 0 mm 2 m/s 706 mmHg 95%
07:00 +19°C° 0 mm 2 m/s 707 mmHg 89%
08:00 +21°C° 0 mm 2 m/s 707 mmHg 83%
09:00 +23°C° 0 mm 2 m/s 707 mmHg 77%
10:00 +25°C° 0.3 mm 2 m/s 707 mmHg 70%
11:00 +27°C° 0.3 mm 2 m/s 707 mmHg 63%
12:00 +29°C° 0.3 mm 1 m/s 707 mmHg 56%
13:00 +28°C° 1.2 mm 1 m/s 706 mmHg 59%
14:00 +28°C° 1.2 mm 1 m/s 705 mmHg 62%
15:00 +28°C° 1.2 mm 1 m/s 705 mmHg 65%
16:00 +27°C° 0.1 mm 1 m/s 705 mmHg 67%
17:00 +27°C° 0.1 mm 1 m/s 704 mmHg 68%
18:00 +26°C° 0.1 mm 1 m/s 704 mmHg 69%
19:00 +25°C° 0.1 mm 1 m/s 705 mmHg 76%
20:00 +23°C° 0.1 mm 2 m/s 705 mmHg 83%
21:00 +20°C° 0.1 mm 2 m/s 705 mmHg 90%
22:00 +19°C° 0 mm 2 m/s 705 mmHg 92%
23:00 +20°C° 0 mm 1 m/s 706 mmHg 94%

11 Dezembro, Sexta-feira

Tempo Temperatura Precipitação Vento Pressão Humidade
00:00 +19°C° 0 mm 1 m/s 706 mmHg 95%
01:00 +19°C° 0 mm 1 m/s 705 mmHg 95%
02:00 +19°C° 0 mm 1 m/s 705 mmHg 95%
03:00 +18°C° 0 mm 1 m/s 705 mmHg 96%
04:00 +18°C° 0 mm 1 m/s 705 mmHg 95%
05:00 +18°C° 0 mm 1 m/s 705 mmHg 95%
06:00 +16°C° 0 mm 0 m/s 705 mmHg 94%
07:00 +21°C° 0 mm 1 m/s 706 mmHg 85%
08:00 +23°C° 0 mm 1 m/s 706 mmHg 75%
09:00 +26°C° 0 mm 2 m/s 707 mmHg 65%
10:00 +27°C° 0 mm 2 m/s 706 mmHg 61%
11:00 +29°C° 0 mm 2 m/s 706 mmHg 57%
12:00 +30°C° 0 mm 2 m/s 706 mmHg 53%
13:00 +30°C° 0 mm 2 m/s 706 mmHg 50%
14:00 +31°C° 0 mm 2 m/s 705 mmHg 48%
15:00 +31°C° 0 mm 2 m/s 705 mmHg 45%
16:00 +31°C° 0 mm 1 m/s 704 mmHg 50%
17:00 +30°C° 0 mm 1 m/s 704 mmHg 54%
18:00 +27°C° 0 mm 0 m/s 704 mmHg 59%
19:00 +25°C° 0 mm 0 m/s 704 mmHg 61%
20:00 +24°C° 0 mm 0 m/s 704 mmHg 62%
21:00 +22°C° 0 mm 0 m/s 705 mmHg 64%
22:00 +21°C° 0 mm 0 m/s 705 mmHg 67%
23:00 +21°C° 0 mm 0 m/s 705 mmHg 69%
Mostrar mais

Necessitamos do seu Consentimento

A Meteoprog e os seus Fornecedores de Serviços podem armazenar e aceder a dados pessoais como cookies, identificadores do dispositivo ou outras tecnologias semelhantes existentes no seu dispositivo e processar estes dados para personalizar conteúdos e anúncios, assim como funcionalidades nas redes sociais e análise de tráfego.

  • Armazenar e/ou aceder a informações no seu dispositivo

    Os cookies, identificadores do dispositivo ou outras informações podem ser armazenados ou acedidos no seu dispositivo, para os fins acima indicados.

  • Anúncios e conteúdos personalizados, medição de anúncios e conteúdos, dados sobre o público-alvo e desenvolvimento de produtos

    Os anúncios e os conteúdos podem ser personalizados com base num perfil. Podem ser adicionados dados adicionais para uma maior personalização dos anúncios e dos conteúdos. A eficácia dos anúncios e dos conteúdos pode ser medida. Podem ser obtidas informações sobre o público que visualizou os anúncios e os conteúdos. Estes dados podem ser usados para desenvolver ou melhorar sistemas, softwares ou a experiência do utilizador.

Ao clicar em "Eu concordo”, permitirá o uso de cookies, identificadores do dispositivo e web beacons mencionados ou outras tecnologias semelhantes. As configurações do navegador do seu dispositivo podem ser alteradas.

Para certos fins, podem ser invocados interesses legítimos ao invés de consentimento. Pode ler mais informação sobre este assunto na nossa Política de Privacidade e Cookies.